Regional Weather Roundup
Issued by NWS Charleston, SC

Home | Current Version | Previous Version | Text Only | Print | Product List | Glossary On
Versions: 1 2 3 4 5 6 7 8 9 10 11 12 13 14 15 16 17 18 19 20 21 22 23 24 25 26 27 28 29 30 31 32 33 34 35 36 37 38 39 40 41 42 43 44 45 46 47 48 49 50
000
ASUS42 KCHS 230325
RWRCHS

REGIONAL WEATHER ROUNDUP
NATIONAL WEATHER SERVICE CHARLESTON SC
1000 PM EST MON DEC 22 2014

NOTE: "FAIR" INDICATES FEW OR NO CLOUDS BELOW 12,000 FEET WITH NO
SIGNIFICANT WEATHER AND/OR OBSTRUCTIONS TO VISIBILITY.

NOT ALL STATIONS ARE QUALITY CONTROLLED BY THE NATIONAL
WEATHER SERVICE. USE DATA WITH CAUTION...ESPECIALLY
DEWPOINT OBSERVATIONS.

SCZ027-030-031-034>040-042>050-230400-
...SOUTHEAST SOUTH CAROLINA...

CITY           SKY/WX    TMP DP  RH WIND       PRES   REMARKS
N CHARLESTON   FOG       46  46 100 NE6       30.01F VSB 1/2
WATERFRONT PRK   N/A     48 N/A N/A NW8         N/A
MOUNT PLEASANT FOG       46  46 100 CALM      30.00F VSB 1/2
PINOPOLIS        N/A     46  46 100 NE6       29.94R
MONCKS CORNER  FOG       46  45  93 NE5       30.02S VSB 1
SUMMERVILLE    CLOUDY    45  45 100 N7        30.02R FOG
BEAUFORT MCAS  CLOUDY    49  47  93 NE7       30.00S
BEAUFORT ARPT  CLOUDY    48  48 100 N9        29.99R
HILTON HEAD IS CLOUDY    52  52 100 N8        29.99F
WALTERBORO     CLOUDY    46 N/A N/A NE3       30.01S
ALLENDALE      CLOUDY    46  46 100 CALM      30.00R FOG

...SOUTHERN MIDLANDS AND PEE DEE...

CITY           SKY/WX    TMP DP  RH WIND       PRES   REMARKS
GEORGETOWN     NOT AVBL
KINGSTREE      NOT AVBL
ORANGEBURG     CLOUDY    44  42  93 NE9       30.02R FOG
BARNWELL       MIX PCPN  45  45 100 E9        30.01R
AIKEN          CLOUDY    43  43 100 NE9       30.02F FOG
MANNING        CLOUDY    45 N/A N/A NE3       30.03F
COLUMBIA       LGT RAIN  43  42  97 N8        30.03R FOG
SUMTER         CLOUDY    43  41  93 NE8       30.03R FOG
FLORENCE       CLOUDY    42  41  96 NE9       30.04S FOG
MYRTLE BEACH   CLOUDY    46  43  87 N8        30.04S FOG
N MYRTLE BEACH CLOUDY    45  44  97 N5        30.03R FOG

$$

GAZ063-065-086>088-099>101-113>116-118-119-134>141-150-230400-
...SOUTHEAST GEORGIA...

CITY           SKY/WX    TMP DP  RH WIND       PRES   REMARKS
SAVANNAH ARPT  CLOUDY    50  48  93 E6        29.99R
HUNTER AAF     CLOUDY    51  51 100 NE3       29.96S
FORT STEWART   CLOUDY    52  50  93 NE3       29.96S
STATESBORO     CLOUDY    47  47 100 E6        29.97F
SYLVANIA       CLOUDY    47  47 100 E7        29.99S FOG
CLAXTON        CLOUDY    48  48 100 E5        29.97F

...CSRA...CENTRAL AND FAR SOUTHEAST GEORGIA...

CITY           SKY/WX    TMP DP  RH WIND       PRES   REMARKS
THOMSON        CLOUDY    45  45 100 NE5       30.03S
AUGUSTA-BUSH   CLOUDY    45  44  97 E5        30.00R FOG
AUGUSTA-DANIEL CLOUDY    45  43  93 NE10      29.98F FOG
SWAINSBORO     FOG      N/A N/A N/A E5        29.97S VSB 1/2
VIDALIA        FOG       50  50 100 E6        29.95F VSB 1/2
EASTMAN        FOG       49  49 100 E3        29.96S VSB 1/2
HAZLEHURST     FOG       52  52 100 E3        29.93F VSB 1/2
ALMA           FOG       55  55 100 E5        29.93F VSB 1/2
WAYCROSS       FOG       57  57 100 E5        29.94F VSB 3/4
JESUP          FOG       57  55  94 CALM      29.95S VSB 1/2
BAXLEY         FOG       54  54 100 E3        29.94S VSB 1/2
BRUNSWICK      CLOUDY    59  57  94 CALM      29.95F
SAINT SIMONS   CLOUDY    59  57  93 N3        29.94F

$$

SCZ027-028-034-036>038-045-046-048>050-GAZ119-141-230400-
...LAKE AND SUPPLEMENTAL COASTAL OBSERVATIONS...

STATION/POSITION TIME  TEMP    WIND        PRES    WAVE   SWELL
                       AIR SEA DIR/SP/G            HT/PER HT/PER/DIR
                 (UTC) (F)     (DEG/KT/KT) (MB)    (FT/S) (FT/S/D)
UPR LAKE MARION  NOT AVBL
WINYAH BAY       0300   46     350/  4     1016.0R
LAKE MURRAY      0200   42      20/  3/  5 1016.6R
ACE BASIN NERRS  0300   47      30/  2     1015.0S
FORT PULASKI     0300   53 56   40/  7/ 10 1015.3F
SAPELO ISLAND    0300   57      40/  5     1014.0S

$$

ANZ835-935-AMZ111-154-330-350-352-354-370-450-454-472-230400-
...C-MAN AND BUOY OBSERVATIONS...

STATION/POSITION TIME  TEMP    WIND        PRES    WAVE   SWELL
                       AIR SEA DIR/SP/G            HT/PER HT/PER/DIR
                 (UTC) (F)     (DEG/KT/KT) (MB)    (FT/S) (FT/S/D)
BUOY 41004       0300   65 73   20/ 14/ 16 1014.5R   3/ 8   2/ 8
BUOY 41008       0300   60 59  360/  6/  8 1014.2R   3/ 5   3/ 80/ 5
FOLLY BEACH CMAN 0300   48     360/  8/  9 1016.5F
CAPERS NEARSHORE 0200   49      30/ 12/ 14   N/A
FRIPP NEARSHORE  NOT AVBL


STATION/POSITION TIME  TEMP    WIND        PRES    WAVE   SWELL
                       AIR SEA DIR/SP/G            HT/PER HT/PER/DIR
                 (UTC) (F)     (DEG/KT/KT) (MB)    (FT/S) (FT/S/D)
5E ST. MARYS GA  0300      61                N/A     3/ 5
FRYING PAN BUOY  0300   56 68   30/ 14/ 17 1016.1F   4/ 8   3/110/ 8
BUOY 41025       0300   56                 1015.5S   7/ 8
CAPE LOOKOUT NC  0300   49     340/  9/ 10 1016.5R
BUOY 41002       0215   72 72  200/ 10/ 12 1017.1R   4/ 6   3/230/ 6
BUOY 41010       0300   76 77  180/ 12/ 16 1015.7R   4/ 5   2/ 70/ 8
ST AUGUSTINE FL  0300   66     180/  9/  9 1014.0F


$$


USA.gov is the U.S. government's official web portal to all federal, state and local government web resources and services.